Location: Zagreb
(45.8000°N, 16.0000°E)
Time: 02:58:32
(UTC+02:00)

Transit 2A Rocket - Pass Details

Date: 30 January 2022
Orbit: 592 x 909 km, 66.7° (Epoch: 26 May)

Event Time Altitude Azimuth Distance (km) Brightness Sun altitude
Rises 15:46:04 0° 155° (SSE) 3,477 8.6 9.9°
Reaches altitude 10° 15:49:51 10° 131° (SE) 2,575 7.6 9.4°
Maximum altitude 15:52:44 14° 102° (ESE) 2,323 7.2 9.0°
Drops below altitude 10° 15:55:38 10° 73° (ENE) 2,599 7.2 8.6°
Sets 15:59:28 0° 49° (NE) 3,535 7.7 8.1°
